Location: Beugnon
(47.6222°N, 3.7850°E)
Time: 04:19:19
(UTC+00:00)

MetOp-A - Pass Details

Date: 09 April 2020
Orbit: 819 x 821 km, 98.5° (Epoch: 01 June)

Event Time Altitude Azimuth Distance (km) Brightness Sun altitude
Exits shadow 19:13:32 - 145° (SE) 2,869 6.5 -8.4°
Reaches altitude 10° 19:14:43 10° 142° (SE) 2,413 6.1 -8.6°
Maximum altitude 19:19:51 50° 68° (ENE) 1,047 4.4 -9.4°
Drops below altitude 10° 19:25:00 10° 355° (N) 2,429 7.0 -10.2°
Sets 19:27:25 0° 351° (N) 3,366 7.8 -10.5°
